Location: Dieppe
(49.9230°N, 1.0775°E)
Time: 02:50:13
(UTC+02:00)

ISS - Pass Details

Date: 28 May 2018
Orbit: 402 x 408 km, 51.6° (Epoch: 20 September)

Event Time Altitude Azimuth Distance (km) Brightness Sun altitude
Rises 22:32:46 0° 267° (W) 2,324 0.7 -5.9°
Reaches altitude 10° 22:34:52 10° 271° (W) 1,463 -0.3 -6.2°
Maximum altitude 22:38:07 65° 353° (N) 449 -3.4 -6.5°
Drops below altitude 10° 22:41:23 10° 77° (ENE) 1,460 -1.3 -6.9°
Sets 22:43:28 0° 80° (E) 2,320 -0.3 -7.1°
